DROID.002

operational
NORAD ID: 63223 Int'l Des: 2025-052 Owner: TURION Country: US
LEOCIRCULARRETROGRADESSO

About DROID.002

Description loading...

Live Position

Loading 3D Globe...

Upcoming Passes

Altitude History

Altitude vs Time

uPlot chart will show altitude changes over time

Two-Line Element Set

1 63223U 25052P 25314.44742572 .00010921 00000-0 50562-3 0 9994
2 63223 97.4134 205.7180 0004287 155.5490 204.5949 15.20280715 36608
Epoch: Nov 10, 2025 • Age: 27 hours

Current Status

Altitude 513.1 km
Velocity 7.60 km/s
Sub-Earth Point -11.78°S, 45.69°W
Launch Date Mar 15, 2025
Age 0.6 years
Type other

Technical Details

Classification Payload
Mass 90.00 kg
Dry Mass 90.00 kg
Total Mass 90.00 kg
Length 0.80 m
Diameter 0.60 m
Span 2.00 m
Shape Box + 2 pan
Manufacturer TURION
Bus Type Droid
Phase Status In Orbit
Owner/State TURION/US

Large Constellations

Loading constellations...